Tracking 19562 objects as of 25-Mar-2019
HD Live streaming from Space Station
objects crossing your sky now

SLOSHSAT

Track SLOSHSAT now!
SLOSHSAT is classified as:


NORAD ID: 28544
Int'l Code: 2005-005C
Perigee: 275.2 km
Apogee: 32,734.1 km
Inclination: 6.7 °
Period: 573.9 minutes
Semi major axis: 22875 km
RCS: 0.5011 m2 (medium)
Launch date: February 12, 2005
Source: European Space Agency (ESA)
Launch site: FRENCH GUIANA (FRGUI)
aabbcc
Your satellite tracking list
Your tracking list is empty




NASA's NSSDC Master Catalog

Two Line Element Set (TLE):
1 28544U 05005C   19083.54143932  .00000523  00000-0  21630-3 0  9990
2 28544   6.6909 183.4933 7094652 299.3171   8.6941  2.50925061122958
Source of the keplerian elements: AFSPC